Ash Shahamah, UAE

6:23 AM +04 on October 18, 2017 (GMT +0400)
Ash Shahamah

Weather History for 41217 - May, 2013

Change the Weather History Date:

Wednesday, May 29, 2013

  Actual Average Record
Temperature  
Mean Temperature 96 °F -  
Max Temperature 107 °F 104 °F - ()
Min Temperature 84 °F 78 °F - ()
Cooling Degree Days 30    
Growing Degree Days 46 (Base 50)    
Moisture  
Dew Point 70 °F    
Average Humidity 49    
Maximum Humidity 79    
Minimum Humidity 14    
Precipitation  
Precipitation 0.00 in 0.00 in - ()
Sea Level Pressure  
Sea Level Pressure 29.64 in    
Wind  
Wind Speed 7 mph ()    
Max Wind Speed 17 mph    
Max Gust Speed -    
Visibility 5.1 miles    
Events      
T = Trace of Precipitation, MM = Missing Value Source: Averaged Metar Reports

Daily Weather History Graph

Daily Weather History Graph

Search for Another Location

Airport or City:

Trip Planner

Search our weather history database for the weather conditions in past years. The results will help you decide how hot, cold, wet, or windy it might be!

Date:

Astronomy

May. 29, 2013 Rise Set
Actual Time 5:33 AM +04 7:04 PM +04
Civil Twilight 5:08 AM +04 7:29 PM +04
Nautical Twilight 4:38 AM +04 7:59 PM +04
Astronomical Twilight 4:06 AM +04 8:31 PM +04
Moon 11:09 PM +04 (5/29) 9:50 AM +04 (5/29)
Length of Visible Light 14h 21m
Length of Day
13h 31m
Waning Gibbous, 76% of the Moon is Illuminated
May 29
Waning Gibbous
May 31
Last Quarter
Jun 8
New
Jun 16
First Quarter
Jun 23
Full

Hourly Weather History & Observations

Time (+04) Temp. Heat Index Dew Point Humidity Pressure Visibility Wind Dir Wind Speed Gust Speed Precip Events Conditions
12:00 AM 86.0 °F 95.1 °F 75.2 °F 70% 29.62 in 5.0 mi NNE 1.2 mph - N/A   Unknown
1:00 AM 85 °F - 77 °F 71% 29.63 in 5 mi NE 4.6 mph - -   Widespread Dust
1:00 AM 84.2 °F 94.1 °F 77.0 °F 79% 29.62 in 5.0 mi NE 4.6 mph - N/A   Unknown
2:00 AM 86.0 °F 91.8 °F 71.6 °F 62% 29.62 in 5.0 mi ESE 12.7 mph - N/A   Unknown
3:00 AM 87.8 °F 93.8 °F 71.6 °F 58% 29.62 in 5.0 mi East 6.9 mph - N/A   Unknown
4:00 AM 86 °F - 70 °F 50% 29.64 in 5 mi ESE 4.6 mph - -   Widespread Dust
4:00 AM 86.0 °F 90.4 °F 69.8 °F 58% 29.62 in 5.0 mi ESE 4.6 mph - N/A   Unknown
5:00 AM 86.0 °F 90.4 °F 69.8 °F 58% 29.65 in 5.0 mi ESE 4.6 mph - N/A   Unknown
6:00 AM 86.0 °F 91.8 °F 71.6 °F 62% 29.65 in 3.7 mi ESE 2.3 mph - N/A   Unknown
7:00 AM 87 °F - 71 °F 50% 29.68 in 4 mi South 5.8 mph - -   Widespread Dust
7:00 AM 87.8 °F 93.8 °F 71.6 °F 58% 29.68 in 3.7 mi South 5.8 mph - N/A   Unknown
8:00 AM 89.6 °F 96.2 °F 71.6 °F 55% 29.68 in 5.0 mi South 8.1 mph - N/A   Unknown
9:00 AM 93.2 °F 100.5 °F 71.6 °F 49% 29.71 in 5.6 mi South 8.1 mph - N/A   Unknown
10:00 AM 96 °F - 70 °F 33% 29.70 in 6 mi South 9.2 mph - -   Clear
10:00 AM 95.0 °F 101.3 °F 69.8 °F 44% 29.71 in - South 9.2 mph - N/A   Clear
11:00 AM 98.6 °F 104.1 °F 68.0 °F 37% 29.68 in - SSW 8.1 mph - N/A   Clear
12:00 PM 104.0 °F 107.4 °F 64.4 °F 27% 29.68 in - West 4.6 mph - N/A   Clear
1:00 PM 103 °F - 66 °F 21% 29.65 in 6 mi WNW 12.7 mph - -   Clear
1:00 PM 104.0 °F 108.9 °F 66.2 °F 29% 29.65 in - WNW 12.7 mph - N/A   Clear
2:00 PM 104.0 °F 105.3 °F 60.8 °F 24% 29.62 in - WNW 13.8 mph - N/A   Clear
3:00 PM 105.8 °F - 46.4 °F 14% 29.62 in - NW 13.8 mph - N/A   Clear
4:00 PM 102 °F - 62 °F 18% 29.60 in 6 mi WNW 17.3 mph - -   Clear
4:00 PM 102.2 °F 104.2 °F 62.6 °F 27% 29.59 in - WNW 17.3 mph - N/A   Clear
5:00 PM 95.0 °F 104.5 °F 73.4 °F 49% 29.59 in - NW 17.3 mph - N/A   Clear
6:00 PM 93.2 °F 107.2 °F 77.0 °F 59% 29.59 in 4.3 mi NW 15.0 mph - N/A   Unknown
7:00 PM 91 °F - 73 °F 46% 29.61 in 6 mi NW 13.8 mph - -   Partly Cloudy
7:00 PM 91.4 °F 100.1 °F 73.4 °F 55% 29.59 in - NW 13.8 mph - N/A   Clear
8:00 PM 89.6 °F 98.2 °F 73.4 °F 59% 29.62 in - NW 12.7 mph - N/A   Clear
9:00 PM 89.6 °F 98.2 °F 73.4 °F 59% 29.62 in - NW 6.9 mph - N/A   Clear
10:00 PM 88 °F - 74 °F 56% 29.64 in 6 mi NNW 4.6 mph - -   Scattered Clouds
10:00 PM 87.8 °F 97.6 °F 75.2 °F 66% 29.62 in - NNW 4.6 mph - N/A   Clear
11:00 PM 87.8 °F 97.6 °F 75.2 °F 66% 29.62 in - NNE 4.6 mph - N/A   Clear